This demonstration page uses our WeatherBlox Daily Observations layout. Learn more.

Left ArrowRight Arrow

41.12389, -100.76542

Hourly Observations for November 8, 2016

Temp ( °F °C ) Dew Point ( °F °C ) Humidity (%) Winds ( mph kmh ) Pressure ( in mb ) Visibility ( mi km ) Precip ( " mm )
12:53 am 00:53 Clear 35 1.7 31 -0.6 85 85 W 3 6 30.43 1030 10 16 0.00 0.00
1:53 am 01:53 Clear 35 1.7 29 -1.7 78 78 WNW 3 6 30.43 1030 10 16 0.00 0.00
2:53 am 02:53 Clear 32 0 29 -1.7 88 88 Calm 30.46 1031 10 16 0.00 0.00
3:53 am 03:53 Clear 30 -1.1 27 -2.8 88 88 NW 5 7 30.48 1032 10 16 0.00 0.00
4:53 am 04:53 Clear 29 -1.7 26 -3.3 89 89 NW 3 6 30.49 1033 10 16 0.00 0.00
5:53 am 05:53 Clear 32 0 28 -2.2 85 85 Calm 30.52 1033 10 16 0.00 0.00
6:53 am 06:53 Clear 30 -1.1 27 -2.8 88 88 NW 3 6 30.54 1034 10 16 0.00 0.00
7:53 am 07:53 Sunny 32 0 29 -1.7 88 88 NNW 5 7 30.55 1035 10 16 0.00 0.00
8:53 am 08:53 Sunny 39 3.9 33 0.6 79 79 WNW 5 7 30.57 1035 10 16 0.00 0.00
9:53 am 09:53 Sunny 44 6.7 35 1.7 71 71 WNW 8 13 30.57 1035 10 16 0.00 0.00
10:53 am 10:53 Sunny 50 10 38 3.3 63 63 NW 6 9 30.56 1035 10 16 0.00 0.00
11:53 am 11:53 Sunny 55 12.8 38 3.3 53 53 VRB 5 7 30.55 1035 10 16 0.00 0.00
12:53 pm 12:53 Sunny 59 15 36 2.2 42 42 VRB 5 7 30.51 1033 10 16 0.00 0.00
1:53 pm 13:53 Sunny 61 16.1 34 1.1 36 36 WNW 7 11 30.48 1032 10 16 0.00 0.00
2:53 pm 14:53 Sunny 61 16.1 34 1.1 36 36 WNW 6 9 30.46 1032 10 16 0.00 0.00
3:53 pm 15:53 Sunny 62 16.7 33 0.6 34 34 Calm 30.47 1032 10 16 0.00 0.00
4:53 pm 16:53 Sunny 58 14.4 35 1.7 42 42 W 5 7 30.46 1032 10 16 0.00 0.00
5:53 pm 17:53 Clear 48 8.9 34 1.1 58 58 Calm 30.47 1032 10 16 0.00 0.00
6:53 pm 18:53 Clear 40 4.4 31 -0.6 70 70 Calm 30.50 1033 10 16 0.00 0.00
7:53 pm 19:53 Clear 37 2.8 30 -1.1 76 76 ESE 7 11 30.51 1033 10 16 0.00 0.00
8:53 pm 20:53 Clear 36 2.2 31 -0.6 82 82 ESE 8 13 30.49 1033 10 16 0.00 0.00
9:53 pm 21:53 Clear 34 1.1 31 -0.6 89 89 Calm 30.49 1033 10 16 0.00 0.00
10:53 pm 22:53 Clear 34 1.1 31 -0.6 89 89 Calm 30.48 1032 10 16 0.00 0.00
11:53 pm 23:53 Clear 32 0 29 -1.7 88 88 E 3 6 30.49 1032 10 16 0.00 0.00

Powered by AerisWeather